Zurück zum Katalog

DMSP 5D-2 F13 DEB

AktivSSO
NORAD 42319·DEBRIS·🇺🇸 United States

Gestartet Mar 24, 1995 von Vandenberg Space Force Base

Loading…

Nächste Überflüge (nächste 24 Stunden)

TLE

AktuellSource: Space-Track

Epoche: Sep 13, 2026, 09:04 UTC

1 42319U 95015JM  26256.37778018  .00004147  00000-0  13515-2 0  9994
2 42319  98.8772 306.1105 0024384  65.8392 294.5340 14.39072319590990

Verfolge DMSP 5D-2 F13 DEB in Echtzeit mit AllMySat

Download on the App Store